Regional Weather Roundup
Issued by NWS

Home | Current Version | Previous Version | Graphics & Text | Print | Product List | Glossary On
Versions: 1 2 3 4 5 6 7 8 9 10 11 12 13 14 15 16 17 18 19 20 21 22 23 24 25 26 27 28 29 30 31 32 33 34 35 36 37 38 39 40 41 42 43 44 45 46 47 48 49 50
000
ASUS43 KBIS 282110
RWRND

NORTH DAKOTA REGIONAL WEATHER ROUNDUP
NATIONAL WEATHER SERVICE BISMARCK ND
400 PM CDT FRI APR 28 2017

NOTE: "FAIR" INDICATES FEW OR NO CLOUDS BELOW 12,000 FEET WITH NO
SIGNIFICANT WEATHER AND/OR OBSTRUCTIONS TO VISIBILITY.


NDZ001>003-009>011-017-282200-
NORTHWEST NORTH DAKOTA

CITY           SKY/WX    TMP DP  RH WIND       PRES   REMARKS
WILLISTON      FAIR      57  20  23 SW6       30.07R
MINOT          FAIR      57  13  17 N7        30.06R
MINOT AFB      SUNNY     55  16  22 NW9       30.05R
$$

NDZ018>021-031>035-040>046-282200-
SOUTHWEST NORTH DAKOTA

CITY           SKY/WX    TMP DP  RH WIND       PRES   REMARKS
BISMARCK       FAIR      57  10  15 N13G20    30.06R
DICKINSON      FAIR      52  16  24 E10       30.03R
GARRISON         N/A     53  11  18 VRB6      30.06R
HETTINGER ARPT SUNNY     52  21  29 E10       30.05R
$$

NDZ004>008-012>016-024-026-027-054-282200-
NORTHEAST NORTH DAKOTA

CITY           SKY/WX    TMP DP  RH WIND       PRES   REMARKS
GRAND FORKS    SUNNY     55  25  31 N21       30.01S
GRND FRKS AFB  SUNNY     52  19  26 N20G25    30.02S
DEVILS LAKE    FAIR      53  12  19 N16       30.04R
$$

NDZ022-023-025-028>030-036>039-047>053-282200-
SOUTHEAST NORTH DAKOTA

CITY           SKY/WX    TMP DP  RH WIND       PRES   REMARKS
FARGO          SUNNY     52  25  35 N17G25    30.01S
JAMESTOWN      FAIR      53  18  25 N14       30.03R
$$




USA.gov is the U.S. government's official web portal to all federal, state and local government web resources and services.